Location: ?????????
(54.7630°N, 39.4991°E)
Time: 10:47:15
(UTC+00:00)

NOSS 3-4 (A) - Pass Details

Date: 14 April 2026
Orbit: 769 x 1442 km, 63.4° (Epoch: 10 January)

Event Time Altitude Azimuth Distance (km) Brightness Sun altitude
Rises 18:04:45 0° 198° (SSW) 3,236 6.0 -13.5°
Reaches altitude 10° 18:07:11 10° 191° (S) 2,335 5.2 -13.8°
Maximum altitude 18:12:05 39° 123° (ESE) 1,216 3.5 -14.3°
Drops below altitude 10° 18:17:29 10° 56° (ENE) 2,584 5.6 -14.9°
Sets 18:20:18 0° 50° (NE) 3,626 6.4 -15.2°
